Flag for U.S.A. Weather past 2 weeks in Bismarck, North Dakota, U.S.A.

Now
54 °F

Clear.


Feels Like: 54 °F
Forecast: 51 / 81 °F
Wind: No wind

Location: Bismarck Municipal Airport

Current Time: Sep 3, 2014 at 1:31:16 AM

Latest Report: Sep 3, 2014 at 12:52 AM


Visibility: 10 mi

Pressure: 29.76 "Hg

Humidity: 90%

Dew point: 51 °F

Location of BismarckLocation

Historic Weather in Bismarck — Graph

°F

Bismarck temperature yesterday

Maximum temperature yesterday: 80 °F (at 4:52 PM)
Minimum temperature yesterday: 50 °F (at 4:52 AM)
Average temperature yesterday: 64 °F

Past Weeks' High & Low Weather Summary

 TemperatureHumidityPressure
High87 °F (Aug 19, 3:52 PM)100% (Aug 22, 7:52 AM)30.23 "Hg (Aug 22, 7:52 AM)
Low44 °F (Aug 26, 6:52 AM)30% (Sep 2, 4:52 PM)29.58 "Hg (Aug 31, 2:52 AM)
Average65 °F80%29.87 "Hg
* Reported Aug 18 11:52 PM — Sep 2 11:52 PM, Bismarck, Weather by CustomWeather, © 2014

Note: Actual official high and low records may vary slightly from our data, if they occured in-between our weather recording intervals... More about our weather records

Advertising

Bismarck weather history for previous 24 hours

 ConditionsComfort  
Time TempWeatherWind HumidityBarometerVisibility
11:52 PM
Sep 2
56 °FClear.6 mph90%29.75 "Hg10 mi
10:52 PM58 °FClear.No wind87%29.77 "Hg10 mi
9:52 PM58 °FClear.No wind84%29.78 "Hg10 mi
8:52 PM68 °FSunny.3 mph57%29.75 "Hg10 mi
7:52 PM71 °FSunny.5 mph51%29.75 "Hg10 mi
6:52 PM76 °FSunny.7 mph39%29.75 "Hg10 mi
5:52 PM80 °FSunny.10 mph32%29.75 "Hg10 mi
4:52 PM80 °FSunny.10 mph30%29.77 "Hg10 mi
3:52 PM79 °FSunny.14 mph34%29.78 "Hg10 mi
2:52 PM78 °FSunny.10 mph37%29.78 "Hg10 mi
1:52 PM79 °FSunny.9 mph38%29.77 "Hg10 mi
12:52 PM76 °FSunny.3 mph45%29.78 "Hg10 mi
11:52 AM73 °FSunny.10 mph48%29.79 "Hg10 mi
10:52 AM67 °FSunny.6 mph59%29.82 "Hg10 mi
9:52 AM61 °FPassing clouds.5 mph70%29.83 "Hg10 mi
8:52 AM57 °FPassing clouds.6 mph78%29.84 "Hg10 mi
7:52 AM51 °FPassing clouds.No wind89%29.83 "Hg10 mi
6:52 AM50 °FPassing clouds.No wind89%29.83 "Hg10 mi
5:52 AM50 °FClear.No wind93%29.83 "Hg10 mi
4:52 AM50 °FClear.No wind93%29.85 "Hg10 mi
3:52 AM53 °FClear.3 mph86%29.84 "Hg10 mi
2:52 AM53 °FClear.5 mph86%29.85 "Hg10 mi
1:52 AM54 °FClear.5 mph86%29.85 "Hg10 mi
Weather by CustomWeather, © 2014

See weather overviewHow to use our weather pages